Regional Weather Roundup
Issued by NWS

Home | Current Version | Previous Version | Text Only | Print | Product List | Glossary Off
Versions: 1 2 3 4 5 6 7 8 9 10 11 12 13 14 15 16 17 18 19 20 21 22 23 24 25 26 27 28 29 30 31 32 33 34 35 36 37 38 39 40 41 42 43 44 45 46 47 48 49 50

000
ASUS43 KBIS 020702
RWRND

NORTH DAKOTA REGIONAL WEATHER ROUNDUP
NATIONAL WEATHER SERVICE BISMARCK ND
200 AM CDT THU JUL 02 2015

NOTE: "FAIR" INDICATES FEW OR NO CLOUDS BELOW 12,000 FEET WITH NO
SIGNIFICANT WEATHER AND/OR OBSTRUCTIONS TO VISIBILITY.


NDZ001>003-009>011-017-020800-
NORTHWEST NORTH DAKOTA

CITY           SKY/WX    TMP DP  RH WIND       PRES   REMARKS
WILLISTON      CLOUDY    65  60  84 W8        30.00R
MINOT          MOCLDY    65  62  90 SW5       29.95S FOG
MINOT AFB      MOCLDY    62  62 100 W5        29.94S FOG
$$

NDZ018>021-031>035-040>046-020800-
SOUTHWEST NORTH DAKOTA

CITY           SKY/WX    TMP DP  RH WIND       PRES   REMARKS
BISMARCK       MOCLDY    67  65  93 CALM      29.95F
DICKINSON      PTCLDY    62  60  93 W5        29.99S FOG
GARRISON         N/A     66  62  87 CALM      29.96S
HETTINGER ARPT PTCLDY    61  58  90 N7        30.00R
$$

NDZ004>008-012>016-024-026-027-054-020800-
NORTHEAST NORTH DAKOTA

CITY           SKY/WX    TMP DP  RH WIND       PRES   REMARKS
GRAND FORKS    CLEAR     60  57  89 S6        29.95R
GRND FRKS AFB  CLEAR     62  58  87 S5        29.96R
DEVILS LAKE    MOCLDY    68  61  77 S8        29.94S
$$

NDZ022-023-025-028>030-036>039-047>053-020800-
SOUTHEAST NORTH DAKOTA

CITY           SKY/WX    TMP DP  RH WIND       PRES   REMARKS
FARGO          CLEAR     64  55  72 S9        29.98S
JAMESTOWN      PTCLDY    64  62  93 S6        29.95F
$$



USA.gov is the U.S. government's official web portal to all federal, state and local government web resources and services.